Location: Port-Aux-Quilles Astronomical Observatory
(47.9769°N, 69.9642°W)
Time: 20:00:46
(UTC-04:00)

Envisat - Visible Passes

Search period start: 20 September 2020 00:00
Search period end: 30 September 2020 00:00
Orbit: 764 x 766 km, 98.1° (Epoch: 20 September)

Date Brightness Start Highest point End Pass type
(mag) Time Alt. Az. Time Alt. Az. Time Alt. Az.
21 Sep 6.3 05:21:16 10° ENE 05:23:38 13° E 05:25:59 10° ESE visible
22 Sep 6.3 19:21:25 10° WSW 19:24:12 15° W 19:27:00 10° NW visible
23 Sep 5.9 05:45:28 10° NE 05:49:24 22° E 05:53:18 10° SE visible
24 Sep 6.7 05:11:28 10° ENE 05:12:06 10° E 05:12:44 10° E visible
25 Sep 6.1 19:09:15 10° SW 19:12:42 18° W 19:16:10 10° NW visible
26 Sep 6.1 05:34:30 10° NE 05:37:55 18° E 05:41:19 10° SE visible
27 Sep 6.8 19:37:33 10° W 19:38:30 10° W 19:39:28 10° WNW visible
28 Sep 5.4 05:59:11 10° NNE 06:03:37 29° E 06:08:01 10° SSE visible
28 Sep 5.9 18:57:16 10° SW 19:01:12 22° W 19:05:10 10° NW visible
29 Sep 6.3 05:23:42 10° NE 05:26:24 14° E 05:29:06 10° ESE visible
